When you browse on this site, cookies collect data to enhance your experience and personalize the content and advertising you see.
Visit our Privacy Policy to learn more. By continuing to use the site, you agree to this use of cookies and data.
  • In Switzerland
  • List of Countries
  • For 7 days
  • Water Temperature
  • Satellite Maps
  • Weather Map
  • Weather Widgets
  • user-avatar
    Login

    Hourly Weather Djelfa

    Today, 26 June, Wednesday

    Time Temperature Precipitation Wind Pressure Humidity
    00:00 +29°C° 0 mm 6 mps 669 mmHg 12%
    01:00 +29°C° 0 mm 6 mps 669 mmHg 12%
    02:00 +28°C° 0 mm 5 mps 669 mmHg 13%
    03:00 +28°C° 0 mm 5 mps 668 mmHg 13%
    04:00 +28°C° 0 mm 5 mps 669 mmHg 13%
    05:00 +29°C° 0 mm 5 mps 669 mmHg 13%
    06:00 +29°C° 0 mm 5 mps 670 mmHg 13%
    07:00 +33°C° 0 mm 6 mps 670 mmHg 11%
    08:00 +35°C° 0 mm 7 mps 671 mmHg 10%
    09:00 +38°C° 0 mm 8 mps 671 mmHg 9%
    10:00 +38°C° 0 mm 8 mps 671 mmHg 8%
    11:00 +39°C° 0 mm 8 mps 671 mmHg 8%
    12:00 +39°C° 0 mm 7 mps 671 mmHg 8%
    13:00 +40°C° 0 mm 7 mps 671 mmHg 7%
    14:00 +40°C° 0 mm 6 mps 670 mmHg 7%
    15:00 +40°C° 0 mm 5 mps 670 mmHg 7%
    16:00 +40°C° 0 mm 5 mps 670 mmHg 7%
    17:00 +39°C° 0 mm 5 mps 669 mmHg 8%
    18:00 +39°C° 0 mm 5 mps 669 mmHg 8%
    19:00 +36°C° 0 mm 5 mps 669 mmHg 9%
    20:00 +34°C° 0 mm 5 mps 669 mmHg 11%
    21:00 +32°C° 0 mm 5 mps 669 mmHg 12%
    22:00 +30°C° 0 mm 5 mps 669 mmHg 13%
    23:00 +30°C° 0 mm 5 mps 669 mmHg 14%

    Tomorrow, 27 June, Thursday

    Time Temperature Precipitation Wind Pressure Humidity
    00:00 +29°C° 0 mm 5 mps 669 mmHg 16%
    01:00 +29°C° 0 mm 4 mps 669 mmHg 16%
    02:00 +28°C° 0 mm 4 mps 669 mmHg 17%
    03:00 +27°C° 0 mm 3 mps 668 mmHg 17%
    04:00 +28°C° 0 mm 3 mps 669 mmHg 18%
    05:00 +28°C° 0 mm 3 mps 669 mmHg 18%
    06:00 +29°C° 0 mm 4 mps 669 mmHg 18%
    07:00 +32°C° 0 mm 4 mps 670 mmHg 16%
    08:00 +34°C° 0 mm 4 mps 671 mmHg 14%
    09:00 +36°C° 0 mm 4 mps 671 mmHg 11%
    10:00 +37°C° 0 mm 3 mps 671 mmHg 11%
    11:00 +38°C° 0 mm 3 mps 671 mmHg 10%
    12:00 +38°C° 0 mm 2 mps 670 mmHg 9%
    13:00 +39°C° 0 mm 3 mps 670 mmHg 9%
    14:00 +39°C° 0 mm 3 mps 669 mmHg 9%
    15:00 +39°C° 0 mm 3 mps 669 mmHg 8%
    16:00 +39°C° 0 mm 3 mps 669 mmHg 9%
    17:00 +38°C° 0 mm 4 mps 668 mmHg 9%
    18:00 +37°C° 0 mm 4 mps 668 mmHg 9%
    19:00 +35°C° 0 mm 4 mps 668 mmHg 10%
    20:00 +33°C° 0 mm 5 mps 668 mmHg 12%
    21:00 +30°C° 0 mm 5 mps 668 mmHg 13%
    22:00 +29°C° 0 mm 4 mps 667 mmHg 15%
    23:00 +28°C° 0 mm 4 mps 667 mmHg 17%

    Day after tomorrow, 28 June, Friday

    Time Temperature Precipitation Wind Pressure Humidity
    00:00 +27°C° 0 mm 3 mps 667 mmHg 19%
    01:00 +26°C° 0 mm 3 mps 666 mmHg 20%
    02:00 +25°C° 0 mm 2 mps 666 mmHg 22%
    03:00 +24°C° 0 mm 1 mps 665 mmHg 23%
    04:00 +25°C° 0 mm 1 mps 666 mmHg 24%
    05:00 +26°C° 0 mm 1 mps 666 mmHg 24%
    06:00 +27°C° 0 mm 1 mps 667 mmHg 24%
    07:00 +29°C° 0 mm 1 mps 667 mmHg 21%
    08:00 +30°C° 0 mm 1 mps 668 mmHg 18%
    09:00 +32°C° 0 mm 2 mps 668 mmHg 15%
    10:00 +35°C° 0 mm 2 mps 668 mmHg 13%
    11:00 +36°C° 0 mm 3 mps 668 mmHg 11%
    12:00 +38°C° 0 mm 3 mps 668 mmHg 8%
    13:00 +38°C° 0 mm 4 mps 668 mmHg 8%
    14:00 +40°C° 0 mm 4 mps 667 mmHg 7%
    15:00 +40°C° 0 mm 5 mps 667 mmHg 7%
    16:00 +39°C° 0 mm 5 mps 667 mmHg 8%
    17:00 +38°C° 0 mm 6 mps 666 mmHg 9%
    18:00 +36°C° 0 mm 6 mps 666 mmHg 10%
    19:00 +34°C° 0 mm 6 mps 666 mmHg 15%
    20:00 +32°C° 0 mm 5 mps 666 mmHg 19%
    21:00 +29°C° 0 mm 5 mps 666 mmHg 24%
    22:00 +28°C° 0 mm 5 mps 666 mmHg 26%
    23:00 +27°C° 0 mm 5 mps 666 mmHg 28%

    29 June, Saturday

    Time Temperature Precipitation Wind Pressure Humidity
    00:00 +27°C° 0 mm 5 mps 666 mmHg 29%
    01:00 +26°C° 0 mm 5 mps 666 mmHg 31%
    02:00 +26°C° 0 mm 4 mps 665 mmHg 32%
    03:00 +25°C° 0 mm 3 mps 665 mmHg 33%
    04:00 +26°C° 0 mm 4 mps 665 mmHg 32%
    05:00 +26°C° 0 mm 4 mps 666 mmHg 31%
    06:00 +27°C° 0 mm 4 mps 666 mmHg 30%
    07:00 +29°C° 0 mm 5 mps 667 mmHg 27%
    08:00 +32°C° 0 mm 5 mps 667 mmHg 24%
    09:00 +34°C° 0 mm 6 mps 668 mmHg 20%
    10:00 +35°C° 0 mm 6 mps 668 mmHg 18%
    11:00 +36°C° 0 mm 5 mps 668 mmHg 16%
    12:00 +37°C° 0 mm 4 mps 668 mmHg 14%
    13:00 +38°C° 0 mm 4 mps 668 mmHg 12%
    14:00 +40°C° 0 mm 4 mps 668 mmHg 10%
    15:00 +41°C° 0 mm 5 mps 667 mmHg 8%
    16:00 +40°C° 0 mm 5 mps 667 mmHg 8%
    17:00 +39°C° 0 mm 6 mps 667 mmHg 8%
    18:00 +39°C° 0 mm 6 mps 667 mmHg 8%
    19:00 +35°C° 0 mm 6 mps 667 mmHg 12%
    20:00 +33°C° 0 mm 6 mps 667 mmHg 15%
    21:00 +30°C° 0 mm 5 mps 667 mmHg 19%
    22:00 +29°C° 0 mm 6 mps 667 mmHg 20%
    23:00 +29°C° 0 mm 7 mps 667 mmHg 22%

    30 June, Sunday

    Time Temperature Precipitation Wind Pressure Humidity
    00:00 +28°C° 0 mm 7 mps 667 mmHg 24%
    01:00 +28°C° 0 mm 7 mps 666 mmHg 25%
    02:00 +28°C° 0 mm 7 mps 666 mmHg 26%
    03:00 +27°C° 0 mm 7 mps 666 mmHg 26%
    04:00 +27°C° 0 mm 6 mps 666 mmHg 26%
    05:00 +28°C° 0 mm 5 mps 667 mmHg 26%
    06:00 +28°C° 0 mm 4 mps 667 mmHg 26%
    07:00 +30°C° 0 mm 5 mps 668 mmHg 23%
    08:00 +33°C° 0 mm 5 mps 668 mmHg 20%
    09:00 +35°C° 0 mm 6 mps 669 mmHg 16%
    10:00 +36°C° 0 mm 5 mps 669 mmHg 14%
    11:00 +39°C° 0 mm 5 mps 669 mmHg 11%
    12:00 +40°C° 0 mm 4 mps 669 mmHg 8%
    13:00 +40°C° 0 mm 5 mps 668 mmHg 8%
    14:00 +41°C° 0 mm 6 mps 668 mmHg 7%
    15:00 +41°C° 0 mm 7 mps 668 mmHg 6%
    16:00 +40°C° 0 mm 6 mps 667 mmHg 7%
    17:00 +39°C° 0 mm 6 mps 667 mmHg 8%
    18:00 +39°C° 0 mm 6 mps 667 mmHg 8%
    19:00 +35°C° 0 mm 5 mps 667 mmHg 12%
    20:00 +33°C° 0 mm 5 mps 667 mmHg 16%
    21:00 +29°C° 0 mm 4 mps 667 mmHg 20%
    22:00 +28°C° 0 mm 3 mps 667 mmHg 22%
    23:00 +26°C° 0 mm 2 mps 666 mmHg 25%

    1 July, Monday

    Time Temperature Precipitation Wind Pressure Humidity
    00:00 +25°C° 0 mm 2 mps 666 mmHg 27%
    01:00 +24°C° 0 mm 2 mps 665 mmHg 28%
    02:00 +23°C° 0 mm 2 mps 665 mmHg 29%
    03:00 +23°C° 0 mm 2 mps 665 mmHg 29%
    04:00 +23°C° 0 mm 2 mps 665 mmHg 28%
    05:00 +24°C° 0 mm 2 mps 666 mmHg 27%
    06:00 +25°C° 0 mm 2 mps 666 mmHg 26%
    07:00 +27°C° 0 mm 2 mps 667 mmHg 24%
    08:00 +29°C° 0 mm 2 mps 667 mmHg 22%
    09:00 +31°C° 0 mm 2 mps 668 mmHg 19%
    10:00 +34°C° 0 mm 3 mps 668 mmHg 17%
    11:00 +36°C° 0 mm 3 mps 668 mmHg 15%
    12:00 +37°C° 0 mm 3 mps 669 mmHg 13%
    13:00 +38°C° 0 mm 4 mps 668 mmHg 12%
    14:00 +39°C° 0 mm 5 mps 668 mmHg 12%
    15:00 +40°C° 0 mm 5 mps 668 mmHg 11%
    16:00 +39°C° 0 mm 5 mps 668 mmHg 12%
    17:00 +38°C° 0 mm 6 mps 667 mmHg 13%
    18:00 +36°C° 0 mm 6 mps 667 mmHg 13%
    19:00 +34°C° 0 mm 5 mps 667 mmHg 17%
    20:00 +30°C° 0 mm 3 mps 667 mmHg 20%
    21:00 +28°C° 0 mm 2 mps 667 mmHg 24%
    22:00 +28°C° 0 mm 2 mps 667 mmHg 25%
    23:00 +27°C° 0 mm 3 mps 666 mmHg 26%
    Show more